FW6626 Weather Reports


time (UTC)temp
F
wind
direction
speed
knots
gust
knots
rain 1hr
in
rain 24hr
in
rain mn
in
humidity
%
barometer
mb
20260902120058 64 47 1.7 4.3 0.00 0.00 0.00 86 1015.9
20260902114600 64 48 1.7 4.3 0.00 0.00 0.00 86 1015.9
20260902113109 64 46 1.7 4.3 0.00 0.00 0.00 86 1016.0
20260902111602 64 46 1.7 3.5 0.00 0.00 0.00 85 1016.0
20260902104602 65 52 1.7 3.5 0.00 0.00 0.00 85 1016.0
20260902103100 65 49 2.6 5.2 0.00 0.00 0.00 85 1016.1
20260902101557 65 42 1.7 4.3 0.00 0.00 0.00 84 1016.2
20260902100056 66 32 1.7 3.5 0.00 0.00 0.00 84 1016.3
20260902094558 66 25 1.7 3.5 0.00 0.00 0.00 84 1016.3
20260902093057 66 20 0.0 2.6 0.00 0.00 0.00 84 1016.4
20260902091605 66 20 1.7 2.6 0.00 0.00 0.00 84 1016.5
20260902090059 66 350 1.7 2.6 0.00 0.00 0.00 84 1016.5
20260902084604 66 0 0.0 0.0 0.00 0.00 0.00 84 1016.7
20260902083103 66 0 0.0 0.0 0.00 0.00 0.00 83 1016.6
20260902081603 67 0 0.0 0.0 0.00 0.00 0.00 84 1016.5
20260902080059 67 0 0.0 0.0 0.00 0.00 0.00 84 1016.5
20260902074610 66 0 0.0 0.0 0.00 0.00 0.00 84 1016.5
20260902073101 66 0 0.0 0.0 0.00 0.00 0.00 84 1016.5
20260902071601 66 0 0.0 0.0 0.00 0.00 0.00 84 1016.4
20260902070057 66 0 0.0 0.0 0.00 0.00 0.00 83 1016.3
20260902064557 67 0 0.0 0.0 0.00 0.00 0.00 83 1016.3
20260902063111 67 0 0.0 0.0 0.00 0.00 0.00 83 1016.2
20260902060108 67 0 0.0 0.0 0.00 0.00 0.00 83 1016.1
20260902054606 67 0 0.0 0.0 0.00 0.00 0.00 82 1016.0
20260902053057 68 0 0.0 0.0 0.00 0.00 0.00 82 1016.1
20260902051559 68 0 0.0 0.0 0.00 0.00 0.00 82 1016.2
20260902050055 68 0 0.0 0.0 0.00 0.00 0.00 82 1016.2
20260902044607 69 0 0.0 0.0 0.00 0.00 0.00 82 1016.2
20260902043111 69 0 0.0 0.9 0.00 0.00 0.00 82 1016.1
20260902041605 69 0 0.0 0.0 0.00 0.00 0.00 82 1015.9
20260902040057 69 0 0.0 0.9 0.00 0.00 0.00 82 1015.5
20260902034614 68 0 0.0 1.7 0.00 0.00 0.00 82 1015.1
20260902033101 69 284 0.0 1.7 0.00 0.00 0.00 82 1015.0
20260902031605 69 0 0.9 2.6 0.00 0.00 0.00 81 1014.7
20260902030100 70 0 0.9 6.1 0.00 0.00 0.00 81 1014.5
20260902024600 70 0 0.0 5.2 0.00 0.00 0.00 81 1014.4
20260902023054 70 257 0.9 5.2 0.00 0.00 0.00 80 1014.4
20260902021608 71 269 1.7 7.8 0.00 0.00 0.00 78 1014.3
20260902014557 72 227 1.7 6.1 0.00 0.00 0.00 75 1014.5
20260902013059 72 311 2.6 7.0 0.00 0.00 0.00 76 1014.4
20260902011553 74 360 1.7 7.0 0.00 0.00 0.00 71 1014.4
20260902010059 76 239 1.7 7.8 0.00 0.00 0.00 70 1014.3
20260902004559 75 360 3.5 9.6 0.00 0.00 0.00 72 1014.4
20260902003134 75 249 2.6 9.6 0.00 0.00 0.00 70 1014.4
20260902001600 74 261 5.2 9.6 0.00 0.00 0.00 71 1014.4
20260902000059 75 360 3.5 9.6 0.00 0.00 0.00 71 1014.7
20260901234555 74 360 5.2 11.3 0.00 0.00 0.00 72 1014.8
20260901233059 74 256 7.0 11.3 0.00 0.00 0.00 71 1015.0
20260901231605 75 264 7.0 13.0 0.00 0.00 0.00 70 1015.0
20260901230056 74 248 7.0 14.8 0.00 0.00 0.00 71 1015.2
20260901224605 74 360 7.8 13.9 0.00 0.00 0.00 72 1015.0
20260901223056 74 263 8.7 14.8 0.00 0.00 0.00 72 1015.2
20260901221601 74 253 8.7 12.2 0.00 0.00 0.00 73 1015.2
20260901220100 75 244 7.0 13.9 0.00 0.00 0.00 71 1015.4
20260901214603 75 276 7.8 13.9 0.00 0.00 0.00 71 1015.5
20260901213059 75 360 6.1 12.2 0.00 0.00 0.00 71 1015.7
20260901211600 75 258 7.8 14.8 0.00 0.00 0.00 71 1015.8
20260901210127 76 275 6.1 13.0 0.00 0.00 0.00 70 1015.8
20260901204554 77 360 5.2 13.0 0.00 0.00 0.00 69 1015.8
20260901203052 76 273 5.2 13.0 0.00 0.00 0.00 69 1015.8
20260901201601 76 274 6.1 12.2 0.00 0.00 0.00 69 1015.8
20260901200052 76 262 5.2 12.2 0.00 0.00 0.00 70 1016.0
20260901194606 75 360 7.0 12.2 0.00 0.00 0.00 70 1016.1
20260901193105 76 259 6.1 13.0 0.00 0.00 0.00 68 1016.2
20260901191615 76 247 5.2 9.6 0.00 0.00 0.00 68 1016.2
20260901190134 76 285 4.3 11.3 0.00 0.00 0.00 71 1016.2
20260901184556 76 247 5.2 9.6 0.00 0.00 0.00 70 1016.3
20260901183059 76 307 3.5 9.6 0.00 0.00 0.00 68 1016.4
20260901181600 76 268 5.2 10.4 0.00 0.00 0.00 70 1016.5
20260901174557 76 269 4.3 9.6 0.00 0.00 0.00 68 1016.4
20260901173055 76 276 2.6 7.0 0.00 0.00 0.00 67 1016.3
20260901171633 76 291 2.6 7.0 0.00 0.00 0.00 68 1016.2
20260901170105 76 232 1.7 7.0 0.00 0.00 0.00 68 1016.2
20260901164612 78 298 0.9 3.5 0.00 0.00 0.00 66 1016.1
20260901163117 76 236 1.7 4.3 0.00 0.00 0.00 69 1016.2
20260901161603 74 304 1.7 4.3 0.00 0.00 0.00 72 1016.1
20260901160056 72 335 1.7 5.2 0.00 0.00 0.00 76 1016.0
20260901154558 71 291 1.7 4.3 0.00 0.00 0.00 75 1016.0
20260901153057 72 321 2.6 7.0 0.00 0.00 0.00 75 1015.9
20260901151601 72 0 0.9 3.5 0.00 0.00 0.00 74 1015.8
20260901144556 72 29 1.7 3.5 0.00 0.00 0.00 75 1015.6
20260901143057 71 0 0.9 2.6 0.00 0.00 0.00 78 1015.7
20260901141601 69 42 0.0 2.6 0.00 0.00 0.00 82 1015.7
20260901134602 66 38 0.9 1.7 0.00 0.00 0.00 85 1015.4
20260901133104 66 38 0.0 1.7 0.00 0.00 0.00 85 1015.2
20260901131556 66 37 0.9 3.5 0.00 0.00 0.00 85 1015.0
20260901130101 66 5 1.7 3.5 0.00 0.00 0.00 85 1014.8
20260901124554 65 327 0.9 2.6 0.00 0.00 0.00 85 1014.6
20260901123103 65 327 0.0 2.6 0.00 0.00 0.00 85 1014.5
20260901121558 65 327 0.9 3.5 0.00 0.00 0.00 84 1014.6